KC3ROS Weather Reports


Display with metric or nautical units.
time (UTC)temp
F
wind
direction
speed
MPH
gust
MPH
rain 1hr
in
rain 24hr
in
rain mn
in
humidity
%
barometer
mb
20260508231204 51 84 2.0 2.0 0.00 0.02 0.02 93 1009.3
20260508230701 52 89 1.0 2.0 0.00 0.02 0.02 92 1009.7
20260508230157 52 89 2.0 3.0 0.00 0.02 0.02 92 1009.8
20260508225655 52 68 2.0 3.0 0.00 0.02 0.02 92 1009.7
20260508225150 52 68 1.0 2.0 0.00 0.02 0.02 92 1009.8
20260508224649 52 60 1.0 2.0 0.00 0.02 0.02 92 1009.8
20260508224146 52 84 2.0 2.0 0.00 0.02 0.02 92 1009.9
20260508223644 52 76 2.0 2.0 0.00 0.02 0.02 91 1009.9
20260508223141 52 63 1.0 2.0 0.00 0.02 0.02 91 1009.8
20260508222638 52 54 1.0 2.0 0.00 0.02 0.02 91 1009.9
20260508222135 52 54 2.0 2.0 0.00 0.02 0.02 91 1009.9
20260508221631 52 77 2.0 3.0 0.00 0.02 0.02 90 1009.8
20260508221127 52 59 1.0 2.0 0.00 0.02 0.02 90 1010.1
20260508220624 52 68 1.0 2.0 0.00 0.02 0.02 90 1010.0
20260508220120 52 59 2.0 2.0 0.00 0.02 0.02 89 1010.1
20260508215617 52 54 2.0 2.0 0.00 0.02 0.02 89 1010.0
20260508215114 52 65 1.0 2.0 0.00 0.02 0.02 89 1010.0
20260508214611 52 68 2.0 2.0 0.00 0.02 0.02 89 1009.9
20260508214108 52 64 1.0 2.0 0.00 0.02 0.02 88 1009.7
20260508213605 52 58 2.0 3.0 0.00 0.02 0.02 88 1010.1
20260508213101 52 56 1.0 2.0 0.00 0.02 0.02 88 1010.3
20260508212557 52 49 0.0 2.0 0.00 0.02 0.02 88 1010.4
20260508212054 52 31 0.0 1.0 0.00 0.02 0.02 87 1010.2
20260508211549 52 26 1.0 1.0 0.00 0.02 0.02 87 1010.0
20260508211046 52 135 0.0 0.0 0.00 0.02 0.02 86 1010.0
20260508210542 52 186 0.0 1.0 0.00 0.02 0.02 85 1010.1
20260508210040 52 91 0.0 1.0 0.00 0.02 0.02 84 1009.9
20260508205537 52 76 0.0 0.0 0.00 0.02 0.02 85 1010.1
20260508205033 52 81 1.0 2.0 0.00 0.02 0.02 85 1010.2
20260508204530 52 187 0.0 3.0 0.00 0.02 0.02 84 1010.1
20260508204026 52 211 1.0 2.0 0.00 0.02 0.02 84 1010.1
20260508203522 52 104 0.0 2.0 0.00 0.02 0.02 85 1010.3
20260508203018 52 214 1.0 3.0 0.00 0.02 0.02 86 1010.4
20260508202515 52 257 0.0 3.0 0.00 0.02 0.02 86 1010.5
20260508202012 52 199 0.0 3.0 0.00 0.02 0.02 85 1010.5
20260508201509 51 137 2.0 2.0 0.00 0.02 0.02 86 1010.5
20260508201005 51 177 1.0 3.0 0.02 0.02 0.02 85 1010.6
20260508200502 51 171 2.0 3.0 0.02 0.02 0.02 85 1010.5
20260508195957 51 269 0.0 2.0 0.00 0.01 0.01 85 1010.9
20260508195455 51 147 0.0 2.0 0.00 0.01 0.01 86 1010.8
20260508194950 51 149 0.0 1.0 0.00 0.01 0.01 85 1010.9
20260508194448 51 129 0.0 3.0 0.00 0.01 0.01 84 1011.3
20260508193945 51 302 2.0 4.0 0.00 0.01 0.01 84 1011.5
20260508193442 51 277 0.0 6.0 0.02 0.01 0.01 83 1011.6
20260508192938 51 151 0.0 9.0 0.05 0.01 0.01 84 1011.7
20260508192435 52 61 2.0 6.0 0.02 0.01 0.01 81 1011.7
20260508191932 52 279 2.0 10.0 0.02 0.00 0.00 79 1011.7
20260508191429 53 265 5.0 13.0 0.02 0.00 0.00 76 1011.7
20260508190926 54 263 11.0 12.0 0.00 0.00 0.00 73 1011.8
20260508190423 54 265 14.0 14.0 0.00 0.00 0.00 73 1011.8
20260508185919 54 204 2.0 7.0 0.00 0.00 0.00 75 1011.7
20260508185417 54 207 4.0 7.0 0.00 0.00 0.00 75 1011.8
20260508184914 54 142 3.0 5.0 0.00 0.00 0.00 73 1011.5
20260508184411 54 48 1.0 9.0 0.00 0.00 0.00 74 1011.6
20260508183908 55 169 3.0 7.0 0.00 0.00 0.00 70 1011.5
20260508183404 56 286 5.0 8.0 0.00 0.00 0.00 66 1011.6
20260508182859 56 180 0.0 11.0 0.00 0.00 0.00 64 1011.5
20260508182357 57 273 5.0 18.0 0.00 0.00 0.00 61 1011.5
20260508181852 57 250 5.0 11.0 0.00 0.00 0.00 63 1011.1
20260508181349 57 197 3.0 9.0 0.00 0.00 0.00 64 1011.0
20260508180846 57 134 4.0 8.0 0.00 0.00 0.00 62 1011.0
20260508180343 57 202 3.0 10.0 0.00 0.00 0.00 61 1011.1
20260508175839 57 246 1.0 6.0 0.00 0.00 0.00 61 1011.1
20260508175336 57 143 2.0 8.0 0.00 0.00 0.00 62 1011.1
20260508174834 58 240 7.0 11.0 0.00 0.00 0.00 61 1011.5
20260508174332 57 205 2.0 9.0 0.00 0.00 0.00 64 1011.1
20260508173828 57 210 2.0 12.0 0.00 0.00 0.00 63 1011.3
20260508173325 57 38 2.0 9.0 0.00 0.00 0.00 64 1011.4
20260508172821 57 279 4.0 11.0 0.00 0.00 0.00 65 1011.3
20260508172318 57 199 7.0 22.0 0.00 0.00 0.00 65 1010.9
20260508171814 57 160 3.0 10.0 0.00 0.00 0.00 63 1011.3
20260508171310 58 266 11.0 15.0 0.00 0.00 0.00 62 1011.3
20260508170808 58 76 0.0 5.0 0.00 0.00 0.00 62 1011.1
20260508170306 59 247 6.0 10.0 0.00 0.00 0.00 58 1011.3
20260508165802 58 271 6.0 9.0 0.00 0.00 0.00 59 1011.3
20260508165259 58 233 3.0 7.0 0.00 0.00 0.00 60 1011.5
20260508164755 58 340 1.0 5.0 0.00 0.00 0.00 61 1011.6
20260508164252 59 243 5.0 13.0 0.00 0.00 0.00 57 1011.4
20260508163750 59 268 4.0 10.0 0.00 0.00 0.00 59 1011.6
20260508163248 58 346 2.0 8.0 0.00 0.00 0.00 60 1011.4
20260508162743 59 312 2.0 12.0 0.00 0.00 0.00 59 1011.6
20260508162240 59 278 6.0 9.0 0.00 0.00 0.00 56 1011.5
20260508161737 60 165 2.0 14.0 0.00 0.00 0.00 59 1011.5
20260508161234 59 264 4.0 13.0 0.00 0.00 0.00 59 1011.7
20260508160732 59 268 4.0 8.0 0.00 0.00 0.00 57 1011.6
20260508160231 59 235 3.0 9.0 0.00 0.00 0.00 59 1011.7
20260508155726 59 263 3.0 15.0 0.00 0.00 0.00 58 1011.7
20260508155224 59 276 4.0 23.0 0.00 0.00 0.00 56 1011.7
20260508154720 59 235 8.0 11.0 0.00 0.00 0.00 57 1011.7
20260508154217 59 279 2.0 7.0 0.00 0.00 0.00 58 1011.8
20260508153714 57 228 2.0 6.0 0.00 0.00 0.00 57 1011.6
20260508153211 59 21 2.0 9.0 0.00 0.00 0.00 57 1012.0
20260508152708 58 129 0.0 3.0 0.00 0.00 0.00 60 1011.8
20260508152203 57 231 1.0 5.0 0.00 0.00 0.00 57 1011.8
20260508151700 57 287 5.0 12.0 0.00 0.00 0.00 56 1012.0
20260508151157 57 13 0.0 6.0 0.00 0.00 0.00 57 1012.0
20260508150654 57 281 3.0 7.0 0.00 0.00 0.00 57 1012.0
20260508150150 57 288 6.0 11.0 0.00 0.00 0.00 56 1012.0
20260508145646 56 203 5.0 9.0 0.00 0.00 0.00 56 1012.2
20260508145143 56 214 6.0 10.0 0.00 0.00 0.00 56 1012.0
20260508144640 57 212 2.0 5.0 0.00 0.00 0.00 56 1012.1
20260508144138 56 359 2.0 6.0 0.00 0.00 0.00 57 1011.9
20260508143635 55 207 2.0 10.0 0.00 0.00 0.00 58 1011.8
20260508143132 54 313 1.0 12.0 0.00 0.00 0.00 58 1011.9
20260508142628 54 194 2.0 13.0 0.00 0.00 0.00 59 1012.0
20260508142125 55 245 7.0 9.0 0.00 0.00 0.00 56 1012.3
20260508141622 54 9 2.0 5.0 0.00 0.00 0.00 59 1012.1
20260508141120 53 107 0.0 16.0 0.00 0.00 0.00 60 1012.0
20260508140617 53 230 4.0 8.0 0.00 0.00 0.00 59 1012.2
20260508140114 53 333 3.0 6.0 0.00 0.00 0.00 60 1012.4
20260508135608 53 130 2.0 6.0 0.00 0.00 0.00 59 1012.4
20260508135104 53 177 2.0 5.0 0.00 0.00 0.00 58 1012.4
20260508134602 52 105 2.0 4.0 0.00 0.00 0.00 62 1012.3
20260508134053 52 258 5.0 7.0 0.00 0.00 0.00 61 1012.3
20260508133550 52 176 1.0 7.0 0.00 0.00 0.00 64 1012.0
20260508133047 52 176 2.0 7.0 0.00 0.00 0.00 62 1012.2
20260508132545 51 59 1.0 5.0 0.00 0.00 0.00 63 1012.2
20260508132041 52 187 3.0 9.0 0.00 0.00 0.00 63 1012.3
20260508131537 52 162 2.0 3.0 0.00 0.00 0.00 64 1012.2
20260508131034 50 103 2.0 5.0 0.00 0.00 0.00 67 1012.3
20260508130531 50 179 2.0 6.0 0.00 0.00 0.00 66 1012.2
20260508130027 49 201 1.0 2.0 0.00 0.00 0.00 70 1012.4
20260508125523 49 209 4.0 6.0 0.00 0.00 0.00 69 1012.2
20260508125021 48 280 1.0 3.0 0.00 0.00 0.00 70 1012.2
20260508124518 46 174 1.0 3.0 0.00 0.00 0.00 73 1012.4
20260508124015 46 150 1.0 7.0 0.00 0.00 0.00 73 1012.4
20260508123514 45 225 1.0 4.0 0.00 0.00 0.00 75 1012.4
20260508123010 46 318 1.0 5.0 0.00 0.00 0.00 75 1012.5
20260508122508 45 204 2.0 7.0 0.00 0.00 0.00 76 1012.5
20260508122004 45 89 0.0 4.0 0.00 0.00 0.00 77 1012.4
20260508121502 45 178 0.0 5.0 0.00 0.00 0.00 76 1012.4
20260508121000 45 220 2.0 5.0 0.00 0.00 0.00 76 1012.4
20260508120457 44 147 1.0 3.0 0.00 0.00 0.00 77 1012.5
20260508115955 44 186 1.0 3.0 0.00 0.00 0.00 76 1012.3
20260508115453 44 297 1.0 3.0 0.00 0.00 0.00 76 1012.6
20260508114949 45 196 2.0 3.0 0.00 0.00 0.00 76 1012.5
20260508114446 44 178 0.0 5.0 0.00 0.00 0.00 74 1012.2
20260508113942 44 211 0.0 2.0 0.00 0.00 0.00 76 1012.5
20260508113440 44 135 2.0 3.0 0.00 0.00 0.00 74 1012.3
20260508112938 44 201 3.0 5.0 0.00 0.00 0.00 75 1012.4
20260508112434 44 199 2.0 6.0 0.00 0.00 0.00 74 1012.1
20260508111931 44 157 1.0 6.0 0.00 0.00 0.00 75 1011.9
20260508111428 44 189 1.0 4.0 0.00 0.00 0.00 74 1012.1
20260508110925 44 192 0.0 4.0 0.00 0.00 0.00 74 1012.2
20260508110423 44 217 4.0 5.0 0.00 0.00 0.00 74 1012.0
20260508105922 44 161 1.0 5.0 0.00 0.00 0.00 74 1012.0
20260508105419 44 174 3.0 5.0 0.00 0.00 0.00 73 1011.8
20260508104916 44 20 0.0 3.0 0.00 0.00 0.00 73 1011.8
20260508104413 43 130 2.0 3.0 0.00 0.00 0.00 73 1011.7
20260508103910 44 208 0.0 2.0 0.00 0.00 0.00 74 1011.6
20260508103407 44 167 2.0 4.0 0.00 0.00 0.00 73 1011.4
20260508102904 43 188 2.0 4.0 0.00 0.00 0.00 73 1011.6
20260508102403 43 160 2.0 4.0 0.00 0.00 0.00 74 1011.6
20260508101859 43 219 2.0 4.0 0.00 0.00 0.00 74 1011.4
20260508101357 43 180 2.0 4.0 0.00 0.00 0.00 75 1011.7
20260508100854 42 193 2.0 5.0 0.00 0.00 0.00 76 1011.7
20260508100353 42 181 0.0 4.0 0.00 0.00 0.00 76 1011.6
20260508095848 42 181 1.0 3.0 0.00 0.00 0.00 76 1011.5
20260508095346 43 174 0.0 3.0 0.00 0.00 0.00 75 1011.7
20260508094842 43 108 2.0 3.0 0.00 0.00 0.00 76 1011.7
20260508094339 43 187 0.0 4.0 0.00 0.00 0.00 75 1011.8
20260508093836 44 157 0.0 3.0 0.00 0.00 0.00 75 1011.8
20260508093334 44 213 0.0 3.0 0.00 0.00 0.00 75 1011.7
20260508092831 44 120 1.0 4.0 0.00 0.00 0.00 74 1011.8
20260508092329 44 159 0.0 3.0 0.00 0.00 0.00 76 1011.9
20260508091827 44 128 0.0 2.0 0.00 0.00 0.00 76 1011.8
20260508091323 44 191 0.0 2.0 0.00 0.00 0.00 78 1011.8
20260508090821 44 140 0.0 2.0 0.00 0.00 0.00 76 1011.8
20260508090320 44 188 0.0 3.0 0.00 0.00 0.00 76 1011.9
20260508085815 44 213 1.0 3.0 0.00 0.00 0.00 76 1011.9
20260508085312 44 44 0.0 2.0 0.00 0.00 0.00 77 1011.8
20260508084808 44 219 2.0 3.0 0.00 0.00 0.00 75 1012.0
20260508084306 44 334 1.0 5.0 0.00 0.00 0.00 77 1012.0
20260508083803 44 180 0.0 3.0 0.00 0.00 0.00 76 1011.9
20260508083300 43 207 2.0 3.0 0.00 0.00 0.00 75 1012.1
20260508082800 43 133 0.0 4.0 0.00 0.00 0.00 77 1011.9
20260508082258 43 210 2.0 5.0 0.00 0.00 0.00 76 1011.9
20260508081755 43 127 2.0 3.0 0.00 0.00 0.00 75 1012.1
20260508081252 43 159 0.0 4.0 0.00 0.00 0.00 75 1012.0
20260508080749 43 224 1.0 6.0 0.00 0.00 0.00 76 1011.8
20260508080247 43 178 0.0 3.0 0.00 0.00 0.00 77 1011.9
20260508075743 43 163 2.0 2.0 0.00 0.00 0.00 79 1012.0
20260508075240 44 87 2.0 2.0 0.00 0.00 0.00 75 1011.9
20260508074738 44 66 0.0 2.0 0.00 0.00 0.00 75 1012.1
20260508074235 44 145 0.0 2.0 0.00 0.00 0.00 72 1011.6
20260508073732 44 190 2.0 5.0 0.00 0.00 0.00 70 1011.8
20260508073230 44 204 1.0 3.0 0.00 0.00 0.00 71 1011.8
20260508072725 44 189 1.0 2.0 0.00 0.00 0.00 70 1011.6
20260508072222 44 170 0.0 3.0 0.00 0.00 0.00 70 1011.5
20260508071720 44 131 1.0 3.0 0.00 0.00 0.00 71 1011.6
20260508071218 44 198 1.0 3.0 0.00 0.00 0.00 70 1011.7
20260508070715 44 146 0.0 2.0 0.00 0.00 0.00 71 1011.7
20260508070214 44 159 0.0 2.0 0.00 0.00 0.00 72 1011.7
20260508065711 44 186 0.0 2.0 0.00 0.00 0.00 72 1011.8
20260508065209 43 176 0.0 2.0 0.00 0.00 0.00 72 1011.8
20260508064706 43 185 1.0 2.0 0.00 0.00 0.00 75 1011.9
20260508064204 43 208 0.0 2.0 0.00 0.00 0.00 77 1011.8
20260508063701 43 80 0.0 3.0 0.00 0.00 0.00 76 1011.9
20260508063159 44 89 1.0 2.0 0.00 0.00 0.00 73 1012.2
20260508062656 44 105 0.0 1.0 0.00 0.00 0.00 72 1012.2
20260508062153 44 212 0.0 2.0 0.00 0.00 0.00 72 1012.2
20260508061650 44 180 1.0 4.0 0.00 0.00 0.00 70 1012.2
20260508061148 44 167 1.0 4.0 0.00 0.00 0.00 70 1012.1
20260508060644 44 166 0.0 3.0 0.00 0.00 0.00 70 1012.1
20260508060142 44 120 1.0 3.0 0.00 0.00 0.00 69 1012.2
20260508055637 44 165 0.0 2.0 0.00 0.00 0.00 71 1012.3
20260508055134 44 122 0.0 3.0 0.00 0.00 0.00 69 1012.3
20260508054630 45 180 0.0 3.0 0.00 0.00 0.00 70 1012.1
20260508054128 45 171 2.0 3.0 0.00 0.00 0.00 68 1012.1
20260508053625 45 150 0.0 2.0 0.00 0.00 0.00 69 1012.2
20260508053122 45 107 1.0 2.0 0.00 0.00 0.00 68 1012.4
20260508052620 45 180 0.0 2.0 0.00 0.00 0.00 68 1012.5
20260508052116 45 87 1.0 3.0 0.00 0.00 0.00 68 1012.4
20260508051613 45 185 1.0 2.0 0.00 0.00 0.00 69 1012.5
20260508051108 45 201 0.0 2.0 0.00 0.00 0.00 69 1012.6
20260508050604 45 163 0.0 3.0 0.00 0.00 0.00 68 1012.5
20260508045558 45 200 0.0 2.0 0.00 0.00 0.00 69 1012.6
20260508045056 45 188 0.0 4.0 0.00 0.00 0.00 70 1012.6
20260508044553 45 128 1.0 2.0 0.00 0.00 0.00 71 1012.5
20260508044049 45 121 0.0 2.0 0.00 0.00 0.00 71 1012.6
20260508043546 45 124 0.0 2.0 0.00 0.00 0.00 71 1012.7
20260508043043 44 160 0.0 2.0 0.00 0.00 0.00 72 1012.5
20260508042539 44 110 0.0 2.0 0.00 0.00 0.00 73 1012.4
20260508042037 44 89 0.0 1.0 0.00 0.00 0.00 72 1012.3
20260508041533 45 97 0.0 1.0 0.00 0.00 0.00 72 1012.3
20260508041030 45 89 0.0 2.0 0.00 0.00 0.00 69 1012.3
20260508040527 46 114 0.0 2.0 0.00 0.00 0.00 68 1012.5
20260508040024 46 171 0.0 2.0 0.00 0.00 0.00 69 1012.2
20260508035521 45 135 0.0 1.0 0.00 0.00 0.00 69 1012.3
20260508035018 46 119 0.0 2.0 0.00 0.00 0.00 68 1012.5
20260508034515 46 174 0.0 2.0 0.00 0.00 0.00 67 1012.2
20260508034012 46 154 0.0 2.0 0.00 0.00 0.00 67 1012.3
20260508033510 46 132 0.0 1.0 0.00 0.00 0.00 66 1012.3
20260508033008 46 164 0.0 1.0 0.00 0.00 0.00 64 1012.2
20260508032504 47 135 0.0 1.0 0.00 0.00 0.00 62 1012.1
20260508032002 47 38 0.0 1.0 0.00 0.00 0.00 60 1012.2
20260508031459 47 15 0.0 1.0 0.00 0.00 0.00 60 1012.5
20260508030954 47 31 0.0 2.0 0.00 0.00 0.00 60 1012.4
20260508030451 46 309 0.0 2.0 0.00 0.00 0.00 62 1012.3
20260508025949 47 257 0.0 1.0 0.00 0.00 0.00 63 1012.6
20260508025445 48 304 0.0 2.0 0.00 0.00 0.00 63 1012.6
20260508024943 48 354 1.0 2.0 0.00 0.00 0.00 60 1012.6
20260508024438 48 355 2.0 3.0 0.00 0.00 0.00 61 1012.6
20260508023935 48 358 2.0 2.0 0.00 0.00 0.00 61 1012.6
20260508023432 48 18 2.0 3.0 0.00 0.00 0.00 61 1012.4
20260508022929 48 9 2.0 3.0 0.00 0.00 0.00 62 1012.3
20260508022425 48 346 3.0 4.0 0.00 0.00 0.00 63 1012.3
20260508021922 48 27 1.0 3.0 0.00 0.00 0.00 63 1012.1
20260508021418 49 346 2.0 4.0 0.00 0.00 0.00 61 1012.2
20260508020914 49 14 1.0 4.0 0.00 0.00 0.00 62 1012.0
20260508020412 49 350 3.0 3.0 0.00 0.00 0.00 62 1012.2
20260508015909 49 1 1.0 3.0 0.00 0.00 0.00 62 1012.0
20260508015407 49 350 1.0 4.0 0.00 0.00 0.00 61 1012.1
20260508014903 49 348 3.0 4.0 0.00 0.00 0.00 61 1012.0
20260508014400 49 4 2.0 4.0 0.00 0.00 0.00 61 1011.8
20260508013855 49 359 2.0 4.0 0.00 0.00 0.00 61 1011.8
20260508013352 49 335 3.0 4.0 0.00 0.00 0.00 61 1011.8
20260508012849 50 11 2.0 4.0 0.00 0.00 0.00 60 1011.8
20260508012346 50 347 2.0 3.0 0.00 0.00 0.00 60 1011.9
20260508011844 50 25 2.0 5.0 0.00 0.00 0.00 59 1011.7
20260508011342 50 13 2.0 3.0 0.00 0.00 0.00 58 1011.8
20260508010839 50 5 2.0 3.0 0.00 0.00 0.00 57 1011.7
20260508010336 51 354 3.0 3.0 0.00 0.00 0.00 56 1011.3
20260508005833 51 5 2.0 4.0 0.00 0.00 0.00 55 1011.3
20260508005330 51 9 2.0 3.0 0.00 0.00 0.00 56 1011.1
20260508004826 51 33 3.0 4.0 0.00 0.00 0.00 54 1011.3
20260508004322 51 1 1.0 4.0 0.00 0.00 0.00 53 1011.1
20260508003819 52 345 2.0 4.0 0.00 0.00 0.00 52 1011.1
20260508003316 52 331 3.0 7.0 0.00 0.00 0.00 51 1011.1
20260508002813 52 2 3.0 6.0 0.00 0.00 0.00 50 1011.1
20260508002310 52 309 2.0 7.0 0.00 0.00 0.00 49 1010.8
20260508001806 53 228 2.0 6.0 0.00 0.00 0.00 49 1010.7
20260508001302 53 234 3.0 9.0 0.00 0.00 0.00 50 1010.7
20260508000758 53 321 2.0 4.0 0.00 0.00 0.00 49 1010.6
20260508000257 53 322 2.0 8.0 0.00 0.00 0.00 48 1010.4
20260507235751 54 42 1.0 4.0 0.00 0.00 0.00 49 1010.4
20260507235249 54 326 2.0 5.0 0.00 0.00 0.00 49 1010.4
20260507234746 54 315 2.0 10.0 0.00 0.00 0.00 45 1010.3
20260507234242 55 329 5.0 11.0 0.00 0.00 0.00 45 1010.4
20260507233738 55 346 4.0 8.0 0.00 0.00 0.00 45 1010.2
20260507233237 55 287 7.0 15.0 0.00 0.00 0.00 46 1010.1
20260507232734 55 60 3.0 11.0 0.00 0.00 0.00 46 1010.2
20260507232231 55 0 5.0 9.0 0.00 0.00 0.00 47 1009.9
20260507231727 55 355 2.0 9.0 0.00 0.00 0.00 46 1010.1